TimeCDT,TemperatureF,Dew PointF,Humidity,Sea Level PressureIn,VisibilityMPH,Wind Direction,Wind SpeedMPH,Gust SpeedMPH,PrecipitationIn,Events,Conditions,WindDirDegrees,DateUTC
12:54 AM,73.9,66.0,76,30.00,10.0,SSE,6.9,-,N/A,,Clear,150,2013-07-07 05:54:00
1:54 AM,72.0,66.0,81,29.98,10.0,SSW,9.2,-,N/A,,Clear,210,2013-07-07 06:54:00
2:54 AM,71.1,64.9,81,29.98,10.0,SSW,8.1,-,N/A,,Clear,210,2013-07-07 07:54:00
3:54 AM,71.1,64.0,78,29.98,10.0,SW,5.8,-,N/A,,Clear,230,2013-07-07 08:54:00
4:54 AM,70.0,63.0,78,29.99,10.0,SSE,8.1,-,N/A,,Clear,160,2013-07-07 09:54:00
5:54 AM,69.1,62.1,78,30.00,10.0,South,6.9,-,N/A,,Clear,180,2013-07-07 10:54:00
6:54 AM,69.1,63.0,81,30.01,10.0,South,5.8,-,N/A,,Clear,190,2013-07-07 11:54:00
7:54 AM,71.1,64.0,78,30.02,10.0,South,8.1,-,N/A,,Clear,170,2013-07-07 12:54:00
8:54 AM,71.1,64.9,81,30.02,10.0,South,8.1,-,N/A,,Clear,180,2013-07-07 13:54:00
9:54 AM,77.0,66.0,69,30.01,10.0,SW,8.1,-,N/A,,Scattered Clouds,220,2013-07-07 14:54:00
10:54 AM,79.0,68.0,69,30.01,10.0,SSW,8.1,-,N/A,,Partly Cloudy,200,2013-07-07 15:54:00
11:54 AM,82.9,68.0,60,30.00,10.0,SSW,10.4,-,N/A,,Clear,210,2013-07-07 16:54:00
12:54 PM,84.9,69.1,59,29.99,10.0,South,10.4,20.7,N/A,,Clear,190,2013-07-07 17:54:00
1:54 PM,87.1,69.1,55,29.99,10.0,South,10.4,-,N/A,,Clear,190,2013-07-07 18:54:00
2:54 PM,89.1,68.0,50,29.97,10.0,SSW,10.4,-,N/A,,Clear,210,2013-07-07 19:54:00
3:54 PM,90.0,66.9,46,29.96,10.0,SSW,12.7,-,N/A,,Partly Cloudy,200,2013-07-07 20:54:00
4:54 PM,90.0,66.0,45,29.96,10.0,SW,11.5,-,N/A,,Partly Cloudy,220,2013-07-07 21:54:00
5:54 PM,89.1,68.0,50,29.95,10.0,SW,11.5,-,N/A,,Clear,230,2013-07-07 22:54:00
6:54 PM,86.0,68.0,55,29.96,10.0,SW,9.2,-,N/A,,Clear,230,2013-07-07 23:54:00
7:54 PM,84.0,70.0,63,29.96,10.0,South,4.6,-,N/A,,Scattered Clouds,190,2013-07-08 00:54:00
8:54 PM,81.0,69.1,67,29.97,10.0,SSW,5.8,-,N/A,,Clear,200,2013-07-08 01:54:00
9:54 PM,80.1,70.0,71,29.98,10.0,South,6.9,-,N/A,,Clear,190,2013-07-08 02:54:00
10:54 PM,80.1,69.1,69,29.99,10.0,SSW,9.2,-,N/A,,Clear,200,2013-07-08 03:54:00
11:54 PM,80.1,68.0,67,30.00,10.0,SSW,10.4,-,N/A,,Clear,200,2013-07-08 04:54:00